When you browse on this site, cookies collect data to enhance your experience and personalize the content and advertising you see.
Visit our Privacy Policy to learn more. By continuing to use the site, you agree to this use of cookies and data.
  • In Spain
  • List of Countries
  • For 7 days
  • Water Temperature
  • Weather Map
  • Weather Widgets
  • user-avatar
    Login

    Hourly Weather Offenbach am Main

    Today, 3 June, Wednesday

    Time Temperature Precipitation Wind Pressure Humidity
    00:00 +18°C° 0.2 mm 0 mps 748 mmHg 68%
    01:00 +17°C° 0 mm 0 mps 748 mmHg 66%
    02:00 +19°C° 0.2 mm 1 mps 747 mmHg 69%
    03:00 +18°C° 0.2 mm 1 mps 746 mmHg 72%
    04:00 +18°C° 0.2 mm 1 mps 746 mmHg 74%
    05:00 +18°C° 0.3 mm 1 mps 746 mmHg 74%
    06:00 +19°C° 0.3 mm 1 mps 746 mmHg 74%
    07:00 +20°C° 0 mm 1 mps 746 mmHg 67%
    08:00 +22°C° 0.2 mm 1 mps 745 mmHg 62%
    09:00 +24°C° 0.2 mm 1 mps 745 mmHg 56%
    10:00 +26°C° 0.2 mm 1 mps 744 mmHg 51%
    11:00 +27°C° 0.1 mm 1 mps 744 mmHg 47%
    12:00 +28°C° 0.1 mm 1 mps 744 mmHg 42%
    13:00 +29°C° 0.1 mm 1 mps 743 mmHg 38%
    14:00 +28°C° 0 mm 1 mps 743 mmHg 40%
    15:00 +28°C° 0 mm 1 mps 742 mmHg 43%
    16:00 +27°C° 0 mm 1 mps 741 mmHg 45%
    17:00 +26°C° 0.2 mm 2 mps 741 mmHg 52%
    18:00 +24°C° 0.2 mm 2 mps 741 mmHg 58%
    19:00 +23°C° 0.2 mm 2 mps 740 mmHg 64%
    20:00 +21°C° 0.6 mm 2 mps 740 mmHg 70%
    21:00 +20°C° 0.6 mm 1 mps 740 mmHg 75%
    22:00 +19°C° 0.6 mm 1 mps 740 mmHg 80%
    23:00 +19°C° 0.5 mm 1 mps 740 mmHg 81%

    Tomorrow, 4 June, Thursday

    Time Temperature Precipitation Wind Pressure Humidity
    00:00 +18°C° 0.5 mm 1 mps 739 mmHg 82%
    01:00 +18°C° 0.5 mm 1 mps 739 mmHg 84%
    02:00 +18°C° 0.8 mm 1 mps 739 mmHg 86%
    03:00 +18°C° 0.8 mm 1 mps 738 mmHg 88%
    04:00 +15°C° 0.8 mm 0 mps 738 mmHg 90%
    05:00 +18°C° 0.5 mm 1 mps 737 mmHg 88%
    06:00 +18°C° 0.5 mm 1 mps 737 mmHg 87%
    07:00 +19°C° 0.5 mm 1 mps 737 mmHg 85%
    08:00 +19°C° 0.7 mm 1 mps 737 mmHg 82%
    09:00 +19°C° 0.7 mm 2 mps 737 mmHg 80%
    10:00 +19°C° 0.7 mm 2 mps 737 mmHg 77%
    11:00 +20°C° 0.7 mm 3 mps 736 mmHg 74%
    12:00 +20°C° 0.7 mm 3 mps 736 mmHg 71%
    13:00 +21°C° 0.7 mm 3 mps 736 mmHg 67%
    14:00 +21°C° 0.5 mm 3 mps 736 mmHg 66%
    15:00 +20°C° 0.5 mm 4 mps 736 mmHg 65%
    16:00 +20°C° 0.5 mm 4 mps 736 mmHg 64%
    17:00 +19°C° 0.1 mm 4 mps 736 mmHg 66%
    18:00 +18°C° 0.1 mm 4 mps 736 mmHg 68%
    19:00 +17°C° 0.1 mm 4 mps 736 mmHg 70%
    20:00 +14°C° 0 mm 4 mps 737 mmHg 72%
    21:00 +13°C° 0 mm 3 mps 737 mmHg 75%
    22:00 +12°C° 0 mm 3 mps 738 mmHg 77%
    23:00 +11°C° 0 mm 3 mps 738 mmHg 79%

    Day after tomorrow, 5 June, Friday

    Time Temperature Precipitation Wind Pressure Humidity
    00:00 +12°C° 0 mm 2 mps 738 mmHg 80%
    01:00 +10°C° 0 mm 2 mps 738 mmHg 82%
    02:00 +10°C° 0 mm 2 mps 739 mmHg 80%
    03:00 +10°C° 0 mm 2 mps 739 mmHg 78%
    04:00 +10°C° 0 mm 2 mps 739 mmHg 76%
    05:00 +10°C° 0 mm 2 mps 739 mmHg 74%
    06:00 +12°C° 0 mm 2 mps 740 mmHg 72%
    07:00 +12°C° 0 mm 2 mps 740 mmHg 70%
    08:00 +12°C° 0 mm 3 mps 740 mmHg 62%
    09:00 +14°C° 0 mm 3 mps 740 mmHg 54%
    10:00 +15°C° 0 mm 4 mps 740 mmHg 46%
    11:00 +17°C° 0 mm 4 mps 740 mmHg 47%
    12:00 +16°C° 0 mm 5 mps 739 mmHg 49%
    13:00 +17°C° 0 mm 6 mps 739 mmHg 50%
    14:00 +15°C° 0.7 mm 6 mps 739 mmHg 61%
    15:00 +14°C° 0.7 mm 6 mps 738 mmHg 72%
    16:00 +11°C° 0.7 mm 6 mps 738 mmHg 83%
    17:00 +11°C° 0.3 mm 6 mps 739 mmHg 82%
    18:00 +11°C° 0.3 mm 6 mps 739 mmHg 82%
    19:00 +12°C° 0.3 mm 5 mps 739 mmHg 82%
    20:00 +12°C° 0.5 mm 5 mps 739 mmHg 83%
    21:00 +12°C° 0.5 mm 4 mps 740 mmHg 85%
    22:00 +12°C° 0.5 mm 4 mps 740 mmHg 86%
    23:00 +12°C° 1.3 mm 4 mps 740 mmHg 87%

    6 June, Saturday

    Time Temperature Precipitation Wind Pressure Humidity
    00:00 +11°C° 1.3 mm 3 mps 739 mmHg 88%
    01:00 +11°C° 1.3 mm 3 mps 739 mmHg 88%
    02:00 +11°C° 0.1 mm 3 mps 739 mmHg 87%
    03:00 +11°C° 0.1 mm 3 mps 740 mmHg 86%
    04:00 +11°C° 0.1 mm 3 mps 740 mmHg 85%
    05:00 +11°C° 0 mm 4 mps 740 mmHg 82%
    06:00 +11°C° 0 mm 4 mps 741 mmHg 79%
    07:00 +12°C° 0 mm 5 mps 741 mmHg 76%
    08:00 +13°C° 0 mm 5 mps 742 mmHg 67%
    09:00 +15°C° 0 mm 5 mps 742 mmHg 57%
    10:00 +16°C° 0 mm 6 mps 743 mmHg 48%
    11:00 +17°C° 0 mm 6 mps 743 mmHg 47%
    12:00 +17°C° 0 mm 6 mps 743 mmHg 46%
    13:00 +17°C° 0 mm 5 mps 743 mmHg 45%
    14:00 +17°C° 0 mm 5 mps 743 mmHg 49%
    15:00 +17°C° 0 mm 5 mps 743 mmHg 52%
    16:00 +17°C° 0 mm 5 mps 743 mmHg 56%
    17:00 +16°C° 0.2 mm 5 mps 743 mmHg 62%
    18:00 +15°C° 0.2 mm 4 mps 743 mmHg 69%
    19:00 +14°C° 0.2 mm 4 mps 743 mmHg 75%
    20:00 +14°C° 0.2 mm 4 mps 743 mmHg 78%
    21:00 +13°C° 0.2 mm 3 mps 744 mmHg 81%
    22:00 +12°C° 0.2 mm 3 mps 744 mmHg 84%
    23:00 +12°C° 0 mm 3 mps 744 mmHg 84%

    7 June, Sunday

    Time Temperature Precipitation Wind Pressure Humidity
    00:00 +13°C° 0 mm 2 mps 744 mmHg 85%
    01:00 +13°C° 0 mm 2 mps 744 mmHg 85%
    02:00 +12°C° 0.1 mm 2 mps 745 mmHg 85%
    03:00 +12°C° 0.1 mm 2 mps 745 mmHg 86%
    04:00 +11°C° 0.1 mm 1 mps 745 mmHg 86%
    05:00 +12°C° 0 mm 2 mps 745 mmHg 81%
    06:00 +12°C° 0 mm 2 mps 745 mmHg 76%
    07:00 +12°C° 0 mm 3 mps 746 mmHg 70%
    08:00 +11°C° 0.3 mm 3 mps 746 mmHg 70%
    09:00 +11°C° 0.3 mm 3 mps 747 mmHg 70%
    10:00 +11°C° 0.3 mm 4 mps 747 mmHg 70%
    11:00 +13°C° 0 mm 4 mps 747 mmHg 63%
    12:00 +14°C° 0 mm 4 mps 747 mmHg 55%
    13:00 +15°C° 0 mm 4 mps 747 mmHg 48%
    14:00 +17°C° 0 mm 4 mps 747 mmHg 47%
    15:00 +17°C° 0 mm 4 mps 747 mmHg 47%
    16:00 +17°C° 0 mm 4 mps 747 mmHg 46%
    17:00 +17°C° 0 mm 3 mps 747 mmHg 49%
    18:00 +17°C° 0 mm 3 mps 747 mmHg 52%
    19:00 +17°C° 0 mm 2 mps 747 mmHg 55%
    20:00 +15°C° 0 mm 2 mps 747 mmHg 60%
    21:00 +14°C° 0 mm 2 mps 748 mmHg 64%
    22:00 +13°C° 0 mm 2 mps 748 mmHg 68%
    23:00 +12°C° 0 mm 2 mps 748 mmHg 72%

    8 June, Monday

    Time Temperature Precipitation Wind Pressure Humidity
    00:00 +12°C° 0 mm 2 mps 748 mmHg 75%
    01:00 +10°C° 0 mm 2 mps 748 mmHg 78%
    02:00 +10°C° 0 mm 2 mps 748 mmHg 80%
    03:00 +9°C° 0 mm 2 mps 748 mmHg 81%
    04:00 +9°C° 0 mm 2 mps 748 mmHg 82%
    05:00 +10°C° 0 mm 3 mps 748 mmHg 78%
    06:00 +11°C° 0 mm 3 mps 748 mmHg 75%
    07:00 +12°C° 0 mm 3 mps 748 mmHg 71%
    08:00 +13°C° 0.1 mm 4 mps 748 mmHg 69%
    09:00 +14°C° 0.1 mm 4 mps 748 mmHg 66%
    10:00 +16°C° 0.1 mm 5 mps 748 mmHg 63%
    11:00 +16°C° 0.3 mm 5 mps 748 mmHg 61%
    12:00 +17°C° 0.3 mm 5 mps 748 mmHg 58%
    13:00 +19°C° 0.3 mm 5 mps 748 mmHg 56%
    14:00 +17°C° 0.3 mm 5 mps 748 mmHg 60%
    15:00 +16°C° 0.3 mm 5 mps 747 mmHg 65%
    16:00 +15°C° 0.3 mm 4 mps 747 mmHg 69%
    17:00 +15°C° 0.1 mm 4 mps 747 mmHg 70%
    18:00 +16°C° 0.1 mm 3 mps 748 mmHg 71%
    19:00 +16°C° 0.1 mm 3 mps 748 mmHg 72%
    20:00 +14°C° 0 mm 3 mps 748 mmHg 75%
    21:00 +13°C° 0 mm 3 mps 748 mmHg 79%
    22:00 +13°C° 0 mm 2 mps 749 mmHg 83%
    23:00 +13°C° 0 mm 2 mps 749 mmHg 85%
    Show more